[[{"header":{"parameterUnit":"m.s-1","parameterCategory":1,"la1":30.2991,"la2":30.254,"lo1":-89.0895,"lo2":-89.0444,"dy":0.0017,"dx":0.0017,"nx":28,"ny":28,"refTime":"2024-08-19T03:00:00:Z","depth":0,"parameterNumber":2,"parameterNumberName":"U-component_of_WINDS"},"data":[0,0,0,0,0,0,0,0,0,0,0,0,0,0,0,0,0,0,0,0,0,0,0,0,0,0,0,0,0,0,0,0,0,0,0,0,0,0,0,0,0,0,0,0,0,0,0,0,0,0,0,0,0,0,0,0,0,0,0.6154,0.6155,0,0.6226,0.6226,0.6227,0.624,0.624,0.6239,0.6239,0.6319,0.6322,0.6325,0,0,0,0,0,0,0,0,0,0,0,0,0,0.6037,0.6039,0.6154,0.6155,0.6156,0.6225,0.6226,0.6227,0.624,0.624,0.6239,0.6238,0.6318,0.6322,0.6325,0,0,0,0,0,0,0,0,0,0,0,0,0,0.6097,0.604,0.6154,0.6171,0.6173,0.6225,0.6227,0.6228,0.6241,0.624,0.6239,0.6238,0.6317,0.6321,0.6325,0.6369,0,0,0.6338,0.634,0,0,0,0,0,0,0,0,0.6093,0.6101,0.6167,0.617,0.6172,0.6223,0.6215,0.6275,0.6241,0.6215,0.6239,0.6237,0.6289,0.6295,0.6311,0.6372,0.6376,0.6338,0.6341,0.6342,0.6344,0,0,0,0,0,0,0,0.6089,0.6098,0.6183,0.6168,0.6171,0.6177,0.6185,0.6226,0.6256,0.6217,0.6218,0.6226,0.629,0.6307,0.6313,0.6377,0.6338,0.6342,0.6344,0.6346,0.6481,0.6482,0,0,0,0,0,0,0.6081,0.6094,0.6181,0.6185,0.6129,0.618,0.6188,0.6208,0.6256,0.6262,0.6227,0.6227,0.63,0.6308,0.6315,0.6371,0.6342,0.6346,0.6349,0.648,0.6481,0.6483,0,0,0,0,0,0,0.6078,0.6088,0.6178,0.614,0.6152,0.6183,0.6205,0.621,0.6226,0.6263,0.6269,0.6238,0.63,0.631,0.6355,0.6374,0.6348,0.6352,0.6479,0.648,0.6482,0.6482,0,0,0,0,0,0,0.6075,0.6087,0.6102,0.614,0.6154,0.6214,0.6206,0.6212,0.6232,0.6233,0.6275,0.6281,0.63,0.6349,0.6359,0.6379,0.6355,0.6477,0.6479,0.6481,0.6481,0.6484,0.6486,0,0,0,0,0,0.6071,0.6101,0.6103,0.6113,0.6172,0.6215,0.6223,0.6241,0.6234,0.6251,0.6274,0.628,0.637,0.6354,0.6365,0.6387,0.6476,0.6479,0.6481,0.6479,0.6483,0.6486,0,0,0,0,0,0,0.6067,0.6106,0.6109,0.6151,0.6179,0.6217,0.6238,0.6244,0.6277,0.6276,0.63,0.6309,0.6354,0.6375,0.6356,0.6433,0.6423,0.6428,0.6418,0.6421,0.6424,0.642,0.6358,0,0,0,0,0,0.607,0.6099,0.6133,0.6167,0.6181,0.6207,0.6226,0.6238,0.6269,0.6282,0.6309,0.6341,0.6377,0.64,0.6434,0.6483,0.6494,0.6504,0.6506,0.6509,0.6514,0.6544,0.6549,0.6491,0.6491,0.6491,0,0,0.6079,0.6104,0.6121,0.6167,0.619,0.6222,0.6217,0.6251,0.6276,0.6288,0.6332,0.6353,0.6391,0.6439,0.6461,0.6458,0.6532,0.6512,0.6513,0.6517,0.6547,0.6552,0.6557,0.6493,0.6492,0.6492,0,0,0.6112,0.6132,0.6164,0.6187,0.6221,0.6239,0.6246,0.6283,0.6297,0.6341,0.6351,0.6382,0.6442,0.647,0.6491,0.6535,0.6543,0.6545,0.6561,0.659,0.6595,0.6599,0.6617,0.6623,0.655,0.655,0.655,0,0.612,0.6166,0.6181,0.6214,0.6235,0.6244,0.6279,0.6301,0.6346,0.6362,0.6356,0.6433,0.6459,0.6514,0.6524,0.6541,0.6553,0.6542,0.6592,0.6597,0.6601,0.6619,0.6625,0.655,0.655,0.655,0.655,0,0.6175,0.6207,0.6229,0.6269,0.6293,0.6327,0.6349,0.6372,0.6381,0.64,0.6447,0.6478,0.652,0.6534,0.6544,0.6591,0.6588,0.6587,0.6578,0.6607,0.6624,0.6631,0.655,0.655,0.655,0.655,0,0,0.6209,0.6256,0.6265,0.6284,0.6322,0.6349,0.6384,0.6423,0.6443,0.6474,0.6506,0.6557,0.6556,0.6581,0.6594,0.6619,0.6655,0.6615,0.6617,0.6624,0.6713,0.6716,0.6723,0.6659,0.666,0.6661,0.6711,0,0.6248,0.6309,0.6323,0.6377,0.6408,0.6417,0.6448,0.6477,0.6495,0.6527,0.6549,0.6585,0.658,0.6595,0.662,0.6645,0.6674,0.6641,0.6693,0.6695,0.6686,0.6732,0.6734,0.678,0.6717,0.6718,0.6719,0,0.6303,0.6332,0.6388,0.6423,0.6437,0.6464,0.6502,0.6531,0.6565,0.6577,0.6604,0.6615,0.6655,0.6642,0.67,0.6678,0.67,0.6715,0.6718,0.6726,0.6711,0.6744,0.6794,0.6802,0.673,0.6729,0.6728,0,0.6325,0.6379,0.642,0.6436,0.6478,0.6497,0.6516,0.6548,0.6571,0.6605,0.662,0.6659,0.6681,0.6712,0.6735,0.6722,0.6792,0.678,0.6806,0.6806,0.6823,0.6822,0.688,0.6831,0.6831,0.6831,0.6831,0,0.637,0.6404,0.6431,0.6456,0.6496,0.6513,0.6553,0.6573,0.6601,0.6633,0.6644,0.6674,0.67,0.6734,0.6752,0.6799,0.6809,0.6822,0.6827,0.6823,0.6822,0.684,0.6839,0.6833,0.6833,0.6832,0.6832,0,0.6403,0.6421,0.6467,0.6502,0.6512,0.654,0.6572,0.6598,0.6616,0.6656,0.6667,0.6697,0.6738,0.6763,0.6815,0.6828,0.6881,0.6883,0.6869,0.6872,0.6898,0.6896,0.6972,0.6985,0.6925,0.6925,0.6926,0,0.6431,0.6458,0.6495,0.6516,0.6534,0.6567,0.659,0.6609,0.6633,0.6674,0.6696,0.6737,0.6772,0.6838,0.6866,0.6907,0.6913,0.6936,0.6919,0.6915,0.6917,0.6916,0.6921,0.6941,0.6941,0.6941,0.6942,0,0.6481,0.6489,0.652,0.6555,0.6581,0.661,0.6639,0.6657,0.6681,0.6708,0.6749,0.6775,0.6828,0.687,0.6914,0.6937,0.6945,0.6946,0.6955,0.6953,0.6945,0.6953,0.688,0.6945,0.6945,0.6945,0.6945,0.6944,0.6515,0.6539,0.657,0.6605,0.6628,0.6655,0.6682,0.6703,0.6737,0.678,0.6789,0.6833,0.6869,0.6927,0.6951,0.6988,0.6984,0.6996,0.7,0.7004,0.7006,0.6936,0.6995,0.6995,0.6995,0.6995,0.6995,0,0.6567,0.6587,0.6619,0.6658,0.6687,0.6688,0.672,0.6745,0.6783,0.6813,0.6846,0.6895,0.6936,0.6967,0.701,0.7034,0.7039,0.7045,0.7045,0.7051,0.7005,0.6994,0.704,0.704,0.704,0.704,0.704,0.704,0.6598,0.6641,0.6653,0.6708,0.6728,0.6769,0.6788,0.6815,0.6839,0.6892,0.6925,0.6944,0.6976,0.7021,0.706,0.7069,0.7086,0.7092,0.7101,0.7059,0.7054,0.7049,0.704,0.7094,0.7094,0.7145,0.7145,0.7145]},{"header":{"parameterUnit":"m.s-1","parameterCategory":1,"la1":30.2991,"la2":30.254,"lo1":-89.0895,"lo2":-89.0444,"dy":0.0017,"dx":0.0017,"nx":28,"ny":28,"refTime":"2024-08-19T03:00:00:Z","depth":0,"parameterNumber":3,"parameterNumberName":"V-component_of_WINDS"},"data":[0,0,0,0,0,0,0,0,0,0,0,0,0,0,0,0,0,0,0,0,0,0,0,0,0,0,0,0,0,0,0,0,0,0,0,0,0,0,0,0,0,0,0,0,0,0,0,0,0,0,0,0,0,0,0,0,0,0,-0.6262,-0.6261,0,-0.6123,-0.6122,-0.612,-0.6179,-0.6182,-0.6186,-0.6189,-0.6044,-0.6037,-0.6031,0,0,0,0,0,0,0,0,0,0,0,0,0,-0.6577,-0.6571,-0.6262,-0.626,-0.6259,-0.6124,-0.6122,-0.612,-0.6178,-0.6182,-0.6187,-0.619,-0.6047,-0.6038,-0.603,0,0,0,0,0,0,0,0,0,0,0,0,0,-0.644,-0.6569,-0.6262,-0.6272,-0.6271,-0.6124,-0.6122,-0.6119,-0.6178,-0.6183,-0.6188,-0.6192,-0.6049,-0.6039,-0.6029,-0.5863,0,0,-0.5997,-0.5992,0,0,0,0,0,0,0,0,-0.6447,-0.6428,-0.6272,-0.6271,-0.627,-0.6174,-0.618,-0.6033,-0.6176,-0.6213,-0.6189,-0.6195,-0.6083,-0.607,-0.6033,-0.5857,-0.585,-0.5996,-0.5989,-0.5985,-0.5982,0,0,0,0,0,0,0,-0.6457,-0.6434,-0.6207,-0.627,-0.6268,-0.6283,-0.6269,-0.6152,-0.6121,-0.621,-0.6214,-0.6197,-0.6083,-0.6043,-0.603,-0.5848,-0.5996,-0.5987,-0.598,-0.5976,-0.5532,-0.5527,0,0,0,0,0,0,-0.6467,-0.6442,-0.6212,-0.6203,-0.6373,-0.6273,-0.6257,-0.6199,-0.6123,-0.6116,-0.6193,-0.62,-0.6058,-0.6042,-0.6025,-0.5829,-0.5985,-0.5975,-0.5969,-0.5538,-0.5531,-0.5525,0,0,0,0,0,0,-0.6473,-0.6446,-0.6217,-0.6323,-0.6295,-0.6262,-0.6197,-0.6194,-0.6154,-0.611,-0.6104,-0.6157,-0.6062,-0.604,-0.5904,-0.5824,-0.5971,-0.5961,-0.5544,-0.5536,-0.5528,-0.5433,0,0,0,0,0,0,-0.6482,-0.6448,-0.6384,-0.6322,-0.629,-0.6098,-0.6192,-0.6188,-0.6136,-0.6144,-0.6075,-0.6068,-0.6064,-0.5919,-0.5894,-0.5813,-0.5953,-0.5551,-0.5541,-0.5531,-0.5443,-0.5422,-0.5405,0,0,0,0,0,-0.6493,-0.6362,-0.6381,-0.6353,-0.621,-0.6093,-0.6075,-0.6073,-0.6129,-0.6065,-0.6038,-0.607,-0.5837,-0.5905,-0.5876,-0.5791,-0.5556,-0.5544,-0.5532,-0.5452,-0.5426,-0.5405,0,0,0,0,0,0,-0.6414,-0.6354,-0.6374,-0.6219,-0.6161,-0.6104,-0.6023,-0.6046,-0.5971,-0.5982,-0.5982,-0.5966,-0.5826,-0.5795,-0.5872,-0.5629,-0.5705,-0.5687,-0.5654,-0.563,-0.5611,-0.5622,-0.5944,0,0,0,0,0,-0.6379,-0.629,-0.6242,-0.6109,-0.608,-0.6056,-0.6005,-0.6009,-0.5949,-0.5925,-0.5887,-0.5827,-0.5741,-0.5683,-0.5601,-0.5439,-0.5426,-0.5366,-0.5347,-0.5332,-0.5316,-0.523,-0.5204,-0.5484,-0.5485,-0.5485,0,0,-0.6305,-0.6261,-0.6204,-0.6093,-0.6048,-0.5956,-0.6035,-0.5934,-0.5866,-0.5909,-0.5779,-0.5749,-0.5683,-0.5534,-0.5466,-0.5503,-0.5235,-0.5316,-0.5304,-0.5296,-0.5215,-0.5188,-0.5164,-0.5476,-0.5478,-0.5479,0,0,-0.6124,-0.6081,-0.5967,-0.5922,-0.5854,-0.584,-0.5813,-0.5752,-0.5735,-0.5605,-0.5636,-0.5555,-0.5405,-0.5357,-0.5313,-0.5116,-0.5144,-0.5089,-0.4989,-0.4906,-0.4884,-0.4864,-0.4796,-0.4771,-0.5073,-0.5073,-0.5073,0,-0.604,-0.5903,-0.5905,-0.5802,-0.5753,-0.5789,-0.5675,-0.563,-0.5539,-0.5504,-0.5547,-0.5362,-0.5319,-0.5161,-0.5113,-0.5075,-0.5045,-0.5097,-0.4887,-0.4867,-0.4849,-0.4784,-0.4758,-0.5067,-0.5067,-0.5068,-0.5069,0,-0.5805,-0.5709,-0.5625,-0.5539,-0.5479,-0.5371,-0.5357,-0.5297,-0.5306,-0.5288,-0.5156,-0.5106,-0.5016,-0.4979,-0.4986,-0.4821,-0.4847,-0.4888,-0.4965,-0.4816,-0.4755,-0.473,-0.5058,-0.506,-0.5062,-0.5064,0,0,-0.5569,-0.5486,-0.5456,-0.5418,-0.5347,-0.5273,-0.5167,-0.508,-0.503,-0.4965,-0.4877,-0.4751,-0.479,-0.474,-0.4742,-0.4669,-0.4519,-0.4719,-0.4718,-0.4685,-0.4337,-0.4307,-0.4278,-0.4537,-0.4532,-0.4528,-0.4343,0,-0.5383,-0.5198,-0.5198,-0.5028,-0.4941,-0.4975,-0.4883,-0.483,-0.481,-0.4733,-0.4711,-0.4622,-0.4679,-0.465,-0.4578,-0.4552,-0.4449,-0.4565,-0.4455,-0.4451,-0.4472,-0.4246,-0.4214,-0.4042,-0.4319,-0.4315,-0.4312,0,-0.5142,-0.5073,-0.4894,-0.4839,-0.4802,-0.4719,-0.4641,-0.4567,-0.4508,-0.4499,-0.4444,-0.4458,-0.4351,-0.4431,-0.4284,-0.4364,-0.4319,-0.4299,-0.4292,-0.4283,-0.4373,-0.4232,-0.3986,-0.3961,-0.4274,-0.4277,-0.428,0,-0.4991,-0.4852,-0.4728,-0.4694,-0.4626,-0.4567,-0.4536,-0.4482,-0.4431,-0.4362,-0.4329,-0.4248,-0.4203,-0.4141,-0.4133,-0.4192,-0.3986,-0.4065,-0.3976,-0.3976,-0.3932,-0.3935,-0.3677,-0.39,-0.3901,-0.3901,-0.3902,0,-0.4785,-0.4674,-0.466,-0.4583,-0.4461,-0.4462,-0.4341,-0.4315,-0.4267,-0.4187,-0.4211,-0.4135,-0.4129,-0.4051,-0.4044,-0.3925,-0.3904,-0.3895,-0.3894,-0.3893,-0.3895,-0.3864,-0.3877,-0.3894,-0.3896,-0.3897,-0.3898,0,-0.4595,-0.458,-0.4448,-0.4395,-0.4379,-0.4292,-0.4246,-0.4174,-0.4157,-0.4055,-0.4031,-0.4005,-0.3914,-0.3901,-0.3794,-0.379,-0.3647,-0.3659,-0.3668,-0.367,-0.3583,-0.3592,-0.3298,-0.326,-0.3506,-0.3504,-0.3502,0,-0.4465,-0.4382,-0.432,-0.4269,-0.4235,-0.4151,-0.41,-0.4098,-0.4043,-0.3971,-0.3907,-0.382,-0.375,-0.3604,-0.3575,-0.3495,-0.3505,-0.3408,-0.3493,-0.3496,-0.3506,-0.3512,-0.3504,-0.3392,-0.3389,-0.3387,-0.3385,0,-0.4237,-0.4235,-0.416,-0.4082,-0.402,-0.3959,-0.3901,-0.3858,-0.3848,-0.3786,-0.3694,-0.364,-0.3533,-0.3446,-0.3367,-0.3335,-0.3358,-0.3358,-0.3334,-0.3332,-0.3342,-0.3338,-0.3625,-0.3365,-0.3367,-0.3369,-0.337,-0.337,-0.4074,-0.4003,-0.3949,-0.3866,-0.3822,-0.3768,-0.3699,-0.3674,-0.3598,-0.3512,-0.3515,-0.3415,-0.336,-0.3256,-0.3219,-0.3141,-0.3173,-0.3137,-0.3128,-0.312,-0.3112,-0.3353,-0.3126,-0.3127,-0.3127,-0.3128,-0.3128,0,-0.3849,-0.3817,-0.374,-0.366,-0.3594,-0.3623,-0.3561,-0.3505,-0.3417,-0.3364,-0.3295,-0.3192,-0.3108,-0.3074,-0.2992,-0.2937,-0.2946,-0.2916,-0.292,-0.2913,-0.3087,-0.3118,-0.291,-0.291,-0.291,-0.291,-0.291,-0.291,-0.3724,-0.3606,-0.3597,-0.3458,-0.3426,-0.3329,-0.3292,-0.3243,-0.3201,-0.3085,-0.3016,-0.2995,-0.2949,-0.2865,-0.2791,-0.2783,-0.2752,-0.2718,-0.2715,-0.2878,-0.29,-0.2921,-0.295,-0.2711,-0.271,-0.2547,-0.2546,-0.2544]}]]